Location: Quedlinburg
(51.7921°N, 11.1414°E)
Time: 10:13:03
(UTC+02:00)

BEESAT - Pass Details

Date: 24 March 2026
Orbit: 683 x 692 km, 98.4° (Epoch: 18 April)

Event Time Altitude Azimuth Distance (km) Brightness Sun altitude
Rises 23:16:38 0° 21° (NNE) 3,063 ? -34.8°
Reaches altitude 10° 23:19:03 10° 29° (NNE) 2,141 ? -34.9°
Enters shadow 23:19:46 14° 34° (NE) 1,881 ? -34.9°
